NORSAT 3 (48272 NORAD) Tracking and Keplerian Element Data

This shows tracking and keplerian element data for the satellite.

Feedback or suggestion? Click here.




ElementValue
Catalog48272
NameNORSAT 3
Epoch Orbit262
Epoch Day136.78113311
Epoch Year2021
RAAN212.079
Inclination97.7861
Eccentricity0.0002686
Argument of Perigee77.5678
Mean Anonmoly282.5848
Mean Motion14.86475744
Decay Rate3.47E-06
L11 48272U 21034E 21136.78113311 .00000347 00000-0 45295-4 0 9994
L22 48272 97.7861 212.0790 0002686 77.5678 282.5848 14.86475744 2623

Live tracking and technical data element details for NORSAT 3 (NORAD 48272). NORSAT 3 can be tracked NOW for your location showing map with azimuth and elevation plus other details from your city location.

Track the satellite on the map from your city or location and see movement details for azimuth, elevation, latitude, longitude, range, height, and movement on the map or in text.







IsCatalogInMostPopularTable: catalog: 48272, numindb: 2
Update: records affected: 1



GetName: 48272 NORSAT 3

Hit Count: updated at: Mon, 17 May 2021 15:01:53 GMT